SCP
0 0 0 0 0 0 0 0 0 0 0 0 0 0 0 0 0 0 0 0 0 0 0 0 0 0 0 0 0 0 0 0 0 0 0 0 0 0 0 0 0 0 0
0 0 0 0 0 0 0 0 0 0 0 0 0 0 0 0 0 0 0 0 0 0 0 0 0 0 0 0 0 0 0 0 0 0 0 0 0 0 0 0 0 0 0
0 0 0 0 0 0 0 0 0 0 0 0 0 0 0 0 0 0 0 0 0 0 0 0 0 0 0 0 0 0 0 0 0 0 0 0 0 0 0 0 0 0 0
0 0 0 0 0 0 0 0 0 0 0 0 0 0 0 0 0 0 0 0 0 0 0 0 0 0 0 0 0 0 0 0 0 0 0 0 0 0 0 0 0 0 0
0 0 0 0 0 0 0 0 0 0 0 0 0 0 0 0 0 0 0 0 0 0 0 0 0 0 0 0 0 0 0 0 0 0 0 0 0 0 0 0 0 0 0
0 0 0 0 0 0 0 0 0 0 0 0 0 0 0 0 0 0 0 0 0 0 0 0 0 0 0 0 0 0 0 0 0 0 0 0 0 0 0 0 0 0 0
0 0 0 0 0 0 0 0 0 0 0 0 0 0 0 0 0 0 0 0 0 0 0 0 0 0 0 0 0 0 0 0 0 0 0 0 0 0 0 0 0 0 0
0 0 0 0 0 0 0 0 0 0 0 0 0 0 0 0 0 0 0 0 0 0 0 0 0 0 0 0 0 0 0 0 0 0 0 0 0 0 0 0 0 0 0
0 0 0 0 0 0 0 0 0 0 0 0 0 0 0 0 0 0 0 0 0 0 0 0 0 0 0 0 0 0 0 0 0 0 0 0 0 0 0 0 0 0 0
0 0 0 0 0 0 0 0 0 0 0 0 0 0 0 0 0 0 0 0 0 0 0 0 0 0 0 0 0 0 0 0 0 0 0 0 0 0 0 0 0 0 0
0 0 0 0 0 0 0 0 0 0 0 0 0 0 0 0 0 0 0 0 0 0 0 0 0 0 0 0 0 0 0 0 0 0 0 0 0 0 0 0 0 0 0
0 0 0 0 0 0 0 0 0 0 0 0 0 0 0 0 0 0 0 0 0 0 0 0 0 0 0 0 0 0 0 0 0 0 0 0 0 0 0 0 0 0 0
0 0 0 0 0 0 0 0 0 0 0 0 0 0 0 0 0 0 0 0 0 0 0 0 0 0 0 0 0 0 0 0 0 0 0 0 0 0 0 0 0 0 0
0 0 0 0 0 0 0 0 0 0 0 0 0 0 0 0 0 0 0 0 0 0 0 0 0 0 0 0 0 0 0 0 0 0 0 0 0 0 0 0 0 0 0
0 0 0 0 0 0 0 0 0 0 0 0 0 0 0 0 0 0 0 0 0 0 0 0 0 0 0 0 0 0 0 0 0 0 0 0 0 0 0 0 0 0 0
0 0 0 0 0 0 0 0 0 0 0 0 0 0 0 0 0 0 0 0 0 0 0 0 0 0 0 0 0 0 0 0 0 0 0 0 0 0 0 0 0 0 0
0 0 0 0 0 0 0 0 0 0 0 0 0 0 0 0 0 0 0 0 0 0 0 0 0 0 0 0 0 0 0 0 0 0 0 0 0 0 0 0 0 0 0
0 0 0 0 0 0 0 0 0 0 0 0 0 0 0 0 0 0 0 0 0 0 0 0 0 0 0 0 0 0 0 0 0 0 0 0 0 0 0 0 0 0 0
0 0 0 0 0 0 0 0 0 0 0 0 0 0 0 0 0 0 0 0 0 0 0 0 0 0 0 0 0 0 0 0 0 0 0 0 0 0 0 0 0 0 0
0 0 0 0 0 0 0 0 0 0 0 0 0 0 0 0 0 0 0 0 0 0 0 0 0 0 0 0 0 0 0 0 0 0 0 0 0 0 0 0 0 0 0
0 0 0 0 0 0 0 0 0 0 0 0 0 0 0 0 0 0 0 0 0 0 0 0 0 0 0 0 0 0 0 0 0 0 0 0 0 0 0 0 0 0 0
0 0 0 0 0 0 0 0 0 0 0 0 0 0 0 0 0 0 0 0 0 0 0 -0 0 0 0 0 0 0 0 0 0 0 0 0 0 0 0 0 0 0 0
0 0 0 0 0 0 0 0 0 0 0 0 0 0 0 0 0 0 0 0 0 0 0 0 0 0 0 0 0 0 0 0 0 0 0 0 0 0 0 0 0 0 0
0 0 0 0 0 0 0 0 0 0 0 0 0 0 0 0 0 0 0 0 0 0 0 0 0 0 0 0 0 0 0 0 0 0 0 0 0 0 0 0 0 0 0
0 0 0 0 0 0 0 0 0 0 0 0 0 0 0 0 0 0 0 0 0 0 0 0 0 0 0 0 0 0 0 0 0 0 0 0 0 0 0 0 0 0 0
0 0 0 0 0 0 0 0 0 0 0 0 0 0 0 0 0 0 0 0 0 0 0 0 0 0 0 0 0 0 0 0 0 0 0 0 0 0 0 0 0 0 0
Wind_Speed
1 1 1 1 1 1 1 1 1 1 1 1 1 2 2 3 3 3 2 7 8 8 9 10 10 10 10 9 9 9 9 9 8 8 7 7 7 7 7 7 7 6 6
2 1 1 0 0 0 0 1 1 1 0 0 1 1 2 2 3 3 3 4 8 8 9 10 10 10 10 10 10 10 9 9 9 9 9 8 8 8 8 8 8 7 7
2 2 1 1 1 0 1 1 1 1 1 0 0 1 1 2 3 4 3 3 4 7 9 9 10 10 10 11 11 11 10 10 10 10 10 9 9 8 8 8 8 8 8
3 2 1 1 1 1 1 1 1 1 0 1 0 1 1 1 3 3 3 3 3 3 6 9 9 9 10 11 11 11 11 11 10 10 10 10 10 10 9 9 9 9 9
3 2 2 1 1 1 1 1 1 1 1 1 1 1 1 1 2 3 4 4 4 4 3 5 8 9 10 10 11 11 11 11 11 11 11 11 11 11 10 10 10 10 10
3 3 2 2 2 1 1 1 1 1 1 1 0 0 1 1 2 2 4 3 4 5 4 4 4 5 9 10 10 11 11 11 12 12 12 12 13 12 12 12 11 11 10
3 3 2 2 2 2 2 2 2 1 1 1 1 1 1 1 1 2 2 2 3 4 4 4 4 3 3 6 8 9 11 11 11 11 12 12 12 11 11 11 11 11 11
3 3 3 3 3 2 2 2 2 1 1 2 2 1 1 2 1 1 1 2 3 3 4 4 4 4 4 3 4 8 10 10 11 11 11 11 11 11 10 10 11 11 11
2 2 4 3 3 3 3 3 3 3 2 2 2 3 2 2 1 1 1 1 1 1 2 2 3 3 4 3 4 5 8 9 10 10 10 11 10 10 9 9 9 8 9
1 2 3 3 3 2 3 3 3 3 3 2 2 2 2 2 2 1 1 1 1 1 2 2 2 2 3 3 3 4 6 6 8 9 8 7 7 7 7 8 8 7 7
1 2 2 2 3 2 3 3 3 3 3 3 3 2 2 1 2 2 2 1 0 1 1 2 2 2 2 2 2 2 3 4 5 5 5 5 5 5 5 5 5 5 5
1 1 2 2 3 2 3 3 3 3 3 3 3 2 3 3 3 3 3 2 1 1 0 1 1 1 1 1 1 1 2 2 2 2 3 3 3 3 3 3 2 2 2
1 2 1 2 2 3 3 3 3 3 3 3 3 3 3 3 2 3 3 2 1 1 0 0 1 1 1 0 0 1 1 2 2 2 3 3 3 3 3 3 2 2 2
2 2 1 1 2 2 2 2 2 3 2 3 3 3 2 2 3 3 3 3 2 1 1 1 0 0 0 1 1 1 1 2 2 3 3 3 4 4 4 4 4 4 4
1 1 1 1 1 1 1 1 1 2 2 2 3 3 2 2 2 3 3 3 3 3 2 2 1 1 1 1 1 1 1 3 3 4 4 4 5 5 5 5 5 5 5
1 1 1 0 0 1 1 1 1 1 1 1 1 2 2 1 2 2 2 2 2 3 2 1 1 0 1 1 3 1 2 4 5 5 5 5 6 6 6 6 6 6 6
1 1 1 0 0 0 0 1 1 0 1 1 1 1 1 1 1 1 1 2 2 2 2 1 1 1 1 2 2 2 1 1 2 5 6 6 6 6 6 6 6 6 6
1 1 1 1 1 1 0 0 1 0 1 0 0 1 1 1 1 1 1 2 2 2 3 3 1 1 1 1 1 1 2 2 2 4 5 6 6 6 7 7 6 6 6
1 2 2 1 1 1 1 1 1 1 0 0 1 1 1 1 1 1 1 2 1 2 2 2 2 1 1 1 2 2 2 2 2 3 4 5 5 6 7 7 6 6 6
1 1 2 2 1 2 2 1 1 1 1 1 1 1 1 1 1 1 1 2 2 2 2 2 2 1 1 1 1 1 1 1 1 1 2 2 4 5 5 6 6 6 5
2 2 2 2 2 1 1 1 1 1 1 2 2 2 2 2 2 2 2 2 3 3 3 2 2 1 1 1 1 1 1 0 1 0 1 1 1 1 1 3 4 4 5
2 2 2 2 2 2 2 2 1 1 2 2 1 1 2 3 3 4 4 4 4 3 3 2 2 2 1 1 1 1 1 1 0 0 1 0 0 1 1 2 3 4 5
2 2 2 2 2 2 2 2 2 2 2 1 1 1 1 2 3 3 5 5 5 5 3 3 3 2 2 2 2 2 1 1 1 1 1 0 0 1 1 1 4 5 5
2 2 2 2 2 3 3 2 2 2 2 2 2 1 2 2 2 3 3 4 3 3 2 2 2 1 1 2 3 2 2 1 1 1 0 1 0 1 1 1 2 4 5
2 2 2 2 2 3 4 3 3 2 2 3 3 2 2 2 3 4 4 4 3 2 3 3 3 2 2 2 3 3 2 2 0 0 0 1 0 0 1 1 1 2 3
2 2 2 2 3 3 4 4 3 2 2 2 3 3 4 3 4 4 3 3 2 1 2 3 3 3 2 2 3 2 2 2 1 0 1 1 1 0 1 0 0 1 2
Wind_Direction
156 130 91 66 52 54 75 83 89 92 94 122 153 162 165 170 177 182 186 193 194 194 192 192 192 190 190 190 192 192 192 190 190 192 195 197 196 195 194 194 196 198 200
174 168 159 144 197 123 131 146 147 131 107 119 166 171 178 177 185 187 195 203 204 203 204 204 201 199 198 200 201 201 201 201 200 200 202 205 207 206 205 206 209 210 210
187 183 174 194 218 190 121 98 94 93 100 111 157 177 184 190 189 191 196 202 208 213 212 210 210 210 210 210 208 208 210 210 208 207 208 210 211 212 215 214 216 217 217
189 183 190 218 212 173 140 133 130 105 98 135 169 224 196 202 202 198 200 203 206 217 222 219 215 216 219 221 218 214 217 217 216 214 215 216 217 218 221 221 222 222 222
192 183 199 213 188 167 169 180 145 156 177 183 201 225 230 229 223 214 211 214 212 215 221 227 227 224 224 226 225 220 221 222 222 222 224 225 225 224 223 225 226 226 226
194 182 192 198 177 171 182 164 162 168 181 188 213 325 288 252 232 226 224 219 216 218 220 227 234 236 237 237 235 230 226 225 224 225 227 230 232 229 226 227 228 229 229
194 185 196 191 180 186 199 182 165 175 196 148 105 4 340 296 244 246 234 226 226 224 220 224 228 232 240 244 244 240 233 230 227 226 228 231 234 233 233 229 228 229 230
203 202 192 196 191 185 186 189 172 169 203 168 150 140 325 331 325 276 224 221 231 222 221 223 221 225 232 240 243 244 242 238 235 230 227 229 232 231 230 230 231 232 234
220 213 199 194 195 189 200 203 189 184 199 206 184 165 174 226 294 335 302 238 223 209 222 223 225 229 228 231 245 251 246 245 243 243 236 230 226 226 223 227 228 228 228
240 220 199 197 198 196 205 213 198 194 185 206 208 208 196 173 179 263 324 301 254 236 236 234 238 236 230 226 231 240 245 248 242 244 244 233 220 213 212 214 222 223 222
261 226 197 191 198 202 209 216 201 198 195 199 197 184 186 192 187 188 240 270 317 272 242 237 247 249 243 229 222 227 232 238 232 231 230 225 206 193 197 207 217 220 221
278 257 210 197 202 204 214 218 211 204 209 205 202 191 180 182 191 190 210 225 238 275 269 242 243 246 242 244 220 171 193 204 199 194 200 191 184 175 175 180 193 207 206
267 262 229 206 209 212 215 209 205 210 208 206 207 212 209 208 183 178 186 207 220 239 248 280 252 243 226 230 229 133 123 135 148 144 149 155 150 146 143 141 149 153 143
257 265 230 209 212 215 219 201 205 218 209 211 218 213 213 219 201 191 185 180 203 226 219 223 55 133 124 124 94 105 81 103 139 141 140 135 127 123 122 120 114 112 111
269 283 248 227 226 214 202 182 201 229 213 213 221 218 216 222 208 206 196 189 188 212 232 212 192 87 124 99 89 95 95 85 101 114 120 119 120 120 119 112 105 101 98
349 4 346 280 236 186 156 160 192 216 203 237 224 210 218 223 212 198 198 199 197 197 215 191 177 128 104 95 83 82 87 92 99 110 115 118 119 119 116 111 107 104 101
37 34 15 359 10 76 166 174 196 180 206 247 223 193 219 208 197 190 179 184 183 169 183 159 120 115 121 109 83 72 71 75 96 109 116 119 122 121 115 113 112 108 105
36 49 58 57 41 37 50 129 274 226 210 248 244 164 245 210 197 182 171 180 179 175 168 170 159 159 153 138 111 92 74 80 81 98 112 119 122 123 122 119 113 109 105
47 46 59 54 39 41 49 48 42 70 75 62 85 123 202 166 188 174 159 161 165 162 155 159 164 146 113 103 93 79 70 66 91 98 103 114 122 125 125 124 123 120 116
74 52 53 54 52 58 55 50 59 71 69 65 77 79 87 157 178 173 167 157 147 143 140 141 137 120 104 84 109 113 77 46 46 81 90 99 109 122 130 133 136 134 130
82 77 69 54 47 60 57 66 74 84 94 84 70 65 66 84 110 142 146 149 146 142 138 137 132 122 127 149 189 179 165 125 12 153 130 109 119 136 152 160 157 154 150
75 72 69 65 46 36 45 61 87 84 78 88 81 59 54 58 66 82 97 108 126 141 150 149 154 169 192 202 174 174 161 172 213 165 162 175 161 199 199 188 172 168 169
84 74 61 67 52 25 37 48 80 101 89 71 74 70 58 52 70 85 81 81 79 83 110 148 155 174 181 184 174 175 189 208 227 155 160 202 230 240 245 213 191 188 186
85 75 64 58 51 25 29 52 80 91 81 61 55 71 88 66 76 103 100 86 75 60 76 107 138 161 199 191 184 177 162 117 82 87 163 193 201 247 236 216 206 203 198
74 57 57 56 52 22 25 46 87 84 73 52 44 58 84 85 74 102 110 105 85 54 66 87 98 93 95 118 134 125 128 133 125 174 171 200 178 263 277 251 208 199 204
104 81 60 49 50 35 26 45 71 86 74 58 49 48 54 72 76 93 108 114 106 65 72 75 67 61 74 113 136 158 163 159 143 210 178 188 179 185 251 248 242 211 209